Change the Weather History Date:

Wednesday, April 2, 2014

  Actual Average (EIDW) Record (EIDW)
Temperature  
Mean Temperature 48 °F -  
Max Temperature 53 °F 52 °F 59 °F (2001)
Min Temperature 44 °F 38 °F 31 °F (2013)
Degree Days  
Heating Degree Days 16    
Moisture  
Dew Point 48 °F    
Average Humidity 94    
Maximum Humidity 100    
Minimum Humidity 85    
Precipitation  
Precipitation 0.08 in - - ()
Sea Level Pressure  
Sea Level Pressure 29.54 in    
Wind  
Wind Speed 10 mph ()    
Max Wind Speed 18 mph    
Max Gust Speed -    
Visibility 4.3 miles    
Events Rain    
Averages and records for this station are not official NWS values.
T = Trace of Precipitation, MM = Missing Value Source: Averaged Metar Reports

Daily Weather History Graph

Daily Weather History Graph

Search for Another Location

Airport or City:

Trip Planner

Search our weather history database for the weather conditions in past years. The results will help you decide how hot, cold, wet, or windy it might be!

Date:

Astronomy

Apr. 02, 2014 Rise Set
Actual Time 6:57 AM IST 8:02 PM IST
Civil Twilight 6:21 AM IST 8:38 PM IST
Nautical Twilight 5:38 AM IST 9:21 PM IST
Astronomical Twilight 4:52 AM IST 10:08 PM IST
Moon 8:10 AM IST (4/2) 11:37 PM IST (4/2)
Length of Visible Light 14h 16m
Length of Day
13h 05m
Waxing Crescent, 9% of the Moon is Illuminated
Apr 2
Waxing Crescent
Apr 7
First Quarter
Apr 15
Full
Apr 22
Last Quarter
Apr 29
New

Hourly Weather History & Observations

Time (IST) Temp. Windchill Dew Point Humidity Pressure Visibility Wind Dir Wind Speed Gust Speed Precip Events Conditions
12:00 AM 45 °F - 44 °F 92% 29.73 in 7 mi ENE 11.2 mph - -   Mist
12:00 AM 44.6 °F 38.8 °F 42.8 °F 93% 29.71 in 6.2 mi ENE 11.5 mph - N/A   Mostly Cloudy
1:00 AM 45 °F - 43 °F 91% 29.72 in 7 mi East 15.7 mph - -   Mist
1:00 AM 44.6 °F 37.4 °F 42.8 °F 93% 29.68 in 6.2 mi East 16.1 mph - N/A   Mostly Cloudy
2:00 AM 45 °F - 44 °F 92% 29.70 in 7 mi East 11.2 mph - - Rain Light Rain
2:00 AM 44.6 °F 39.2 °F 42.8 °F 93% 29.68 in 6.2 mi East 10.4 mph - N/A Rain Light Rain
3:00 AM 45 °F - 44 °F 93% 29.68 in 7 mi ENE 8.9 mph - - Rain Light Rain
3:00 AM 44.6 °F 40.2 °F 44.6 °F 100% 29.65 in 6.2 mi ENE 8.1 mph - N/A   Mostly Cloudy
4:00 AM 45 °F - 44 °F 96% 29.65 in 6 mi ENE 8.9 mph - - Rain Light Rain Showers
4:00 AM 44.6 °F 39.7 °F 44.6 °F 100% 29.62 in 6.2 mi ENE 9.2 mph - N/A Rain Light Rain Showers
5:00 AM 45 °F - 45 °F 99% 29.62 in 3 mi East 8.9 mph - - Rain Light Rain Showers
5:00 AM 44.6 °F 39.7 °F 44.6 °F 100% 29.59 in 3.1 mi East 9.2 mph - N/A   Mostly Cloudy
6:00 AM 46 °F - 45 °F 96% 29.60 in 3 mi East 11.2 mph - - Rain Light Rain Showers
6:00 AM 46.4 °F 41.5 °F 44.6 °F 93% 29.56 in 3.1 mi East 10.4 mph - N/A   Mostly Cloudy
7:00 AM 46 °F - 46 °F 99% 29.58 in 2 mi East 8.9 mph - -   Mist
7:00 AM 46.4 °F 41.9 °F 46.4 °F 100% 29.56 in 1.9 mi East 9.2 mph - N/A   Overcast
8:00 AM 47 °F - 46 °F 96% 29.56 in 2 mi East 13.4 mph - -   Mist
8:00 AM 46.4 °F 40.7 °F 46.4 °F 100% 29.53 in 2.5 mi East 12.7 mph - N/A   Mostly Cloudy
8:30 AM 46.4 °F 41.1 °F 46.4 °F 100% 29.53 in 3.7 mi East 11.5 mph - N/A Rain Light Rain Showers
9:00 AM 47 °F - 47 °F 99% 29.55 in 3 mi East 11.2 mph - - Rain Light Rain Showers
9:00 AM 48.2 °F - 46.4 °F 93% 29.53 in 3.1 mi ENE 11.5 mph - N/A   Mostly Cloudy
9:30 AM 48.2 °F - 48.2 °F 100% 29.53 in 4.3 mi East 8.1 mph - N/A   Mostly Cloudy
10:00 AM 51 °F - 48 °F 87%  in 5 mi East 15.7 mph - - Rain Light Rain
10:00 AM 50.0 °F - 48.2 °F 94% 29.50 in 5.0 mi East 18.4 mph - N/A Rain Light Rain
10:30 AM 51.8 °F - 50.0 °F 94% 29.50 in 3.1 mi East 16.1 mph - N/A Rain Light Rain
11:00 AM 51 °F - 50 °F 93% 29.54 in 5 mi East 15.7 mph - - Rain Light Drizzle
11:00 AM 51.8 °F - 50.0 °F 94% 29.53 in 5.0 mi ESE 13.8 mph - N/A   Light Drizzle
11:30 AM 51.8 °F - 50.0 °F 94% 29.50 in 2.5 mi East 17.3 mph - N/A Rain Light Rain
12:00 PM 51 °F - 50 °F 93% 29.52 in 4 mi East 15.7 mph - - Rain Light Drizzle
12:00 PM 51.8 °F - 50.0 °F 94% 29.50 in 4.3 mi East 12.7 mph - N/A   Light Drizzle
2:00 PM 52 °F - 50 °F 89% 29.52 in 3 mi East 13.4 mph - - Rain Light Drizzle
2:00 PM 51.8 °F - 50.0 °F 94% 29.50 in 3.1 mi East 11.5 mph - N/A   Light Drizzle
2:30 PM 51.8 °F - 50.0 °F 94% 29.47 in 4.3 mi East 11.5 mph - N/A Rain Light Rain
3:00 PM 52 °F - 50 °F 89% 29.49 in 5 mi East 13.4 mph - - Rain Light Drizzle
3:00 PM 51.8 °F - 50.0 °F 94% 29.47 in 5.0 mi East 12.7 mph - N/A   Light Drizzle
3:30 PM 51.8 °F - 50.0 °F 94% 29.47 in 2.5 mi East 11.5 mph - N/A   Light Drizzle
4:00 PM 51 °F - 50 °F 94% 29.49 in 3 mi East 13.4 mph - - Rain Light Drizzle
4:00 PM 51.8 °F - 50.0 °F 94% 29.47 in 3.1 mi East 13.8 mph - N/A   Light Drizzle
4:30 PM 50.0 °F - 50.0 °F 100% 29.44 in 3.1 mi ENE 9.2 mph - N/A   Overcast
5:00 PM 50 °F - 49 °F 95% 29.47 in 2 mi East 11.2 mph - - Rain Light Drizzle
5:00 PM 50.0 °F - 48.2 °F 94% 29.44 in 2.5 mi East 10.4 mph - N/A   Light Drizzle
6:00 PM 50 °F - 49 °F 96% 29.47 in 2 mi East 8.9 mph - - Rain Light Drizzle
6:00 PM 50.0 °F - 50.0 °F 100% 29.44 in 2.5 mi East 9.2 mph - N/A   Light Drizzle
7:00 PM 51 °F - 50 °F 95% 29.48 in 6 mi East 8.9 mph - - Rain Light Drizzle
7:00 PM 51.8 °F - 50.0 °F 94% 29.44 in 5.6 mi East 9.2 mph - N/A   Light Drizzle
8:00 PM 53 °F - 51 °F 88% 29.48 in 5 mi SSE 11.2 mph - - Rain Light Drizzle
8:00 PM 53.6 °F - 50.0 °F 88% 29.47 in 5.0 mi SSE 9.2 mph - N/A   Overcast
9:00 PM 53 °F - 50 °F 87% 29.48 in 4 mi NE 2.2 mph - -   Mist
9:00 PM 51.8 °F - 50.0 °F 94% 29.47 in 4.3 mi North 2.3 mph - N/A   Mostly Cloudy
10:00 PM 53 °F - 50 °F 87% 29.49 in 6 mi North 2.2 mph - -   Partly Cloudy
10:00 PM 51.8 °F - 50.0 °F 94% 29.47 in 6.2 mi North 2.3 mph - N/A   Mostly Cloudy
11:00 PM 53 °F - 50 °F 85% 29.48 in 6 mi SSE 4.5 mph - - Rain Light Rain
11:00 PM 53.6 °F - 50.0 °F 88% 29.47 in 6.2 mi SSE 4.6 mph - N/A Rain Light Rain